• In Russia
  • List of Countries
  • For 7 days
  • Water Temperature
  • Satellite Maps
  • Weather Map
  • Weather Widgets
  • user-avatar
    Login

    Hourly Weather Moscow

    Today, 20 June, Wednesday

    Time Temperature Precipitation Wind Pressure Humidity
    00:00 +19°C° 0 mm 3 mps 743 mmHg 79%
    01:00 +19°C° 0 mm 3 mps 743 mmHg 78%
    02:00 +19°C° 0 mm 4 mps 743 mmHg 78%
    03:00 +18°C° 0 mm 3 mps 743 mmHg 76%
    04:00 +18°C° 0.1 mm 4 mps 743 mmHg 79%
    05:00 +17°C° 0.1 mm 4 mps 743 mmHg 81%
    06:00 +16°C° 0.1 mm 5 mps 744 mmHg 84%
    07:00 +17°C° 0 mm 5 mps 744 mmHg 74%
    08:00 +19°C° 0 mm 5 mps 744 mmHg 64%
    09:00 +19°C° 0 mm 5 mps 744 mmHg 54%
    10:00 +20°C° 0 mm 6 mps 744 mmHg 50%
    11:00 +21°C° 0 mm 6 mps 744 mmHg 46%
    12:00 +22°C° 0 mm 6 mps 744 mmHg 42%
    13:00 +22°C° 0 mm 6 mps 744 mmHg 41%
    14:00 +23°C° 0 mm 7 mps 744 mmHg 40%
    15:00 +23°C° 0 mm 7 mps 744 mmHg 39%
    16:00 +23°C° 0 mm 6 mps 744 mmHg 42%
    17:00 +22°C° 0 mm 6 mps 744 mmHg 45%
    18:00 +22°C° 0 mm 5 mps 744 mmHg 48%
    19:00 +21°C° 0 mm 4 mps 744 mmHg 51%
    20:00 +19°C° 0 mm 4 mps 744 mmHg 54%
    21:00 +18°C° 0 mm 3 mps 745 mmHg 56%
    22:00 +17°C° 0 mm 3 mps 745 mmHg 59%
    23:00 +16°C° 0 mm 3 mps 745 mmHg 62%

    Tomorrow, 21 June, Thursday

    Time Temperature Precipitation Wind Pressure Humidity
    00:00 +15°C° 0 mm 2 mps 745 mmHg 65%
    01:00 +15°C° 0 mm 2 mps 745 mmHg 67%
    02:00 +13°C° 0 mm 3 mps 746 mmHg 70%
    03:00 +13°C° 0 mm 3 mps 746 mmHg 72%
    04:00 +13°C° 0 mm 3 mps 746 mmHg 71%
    05:00 +13°C° 0 mm 4 mps 746 mmHg 69%
    06:00 +14°C° 0 mm 4 mps 746 mmHg 68%
    07:00 +15°C° 0 mm 4 mps 746 mmHg 61%
    08:00 +17°C° 0 mm 5 mps 746 mmHg 55%
    09:00 +19°C° 0 mm 5 mps 746 mmHg 48%
    10:00 +20°C° 0 mm 5 mps 746 mmHg 48%
    11:00 +22°C° 0 mm 5 mps 746 mmHg 48%
    12:00 +23°C° 0 mm 5 mps 746 mmHg 48%
    13:00 +24°C° 0 mm 6 mps 745 mmHg 49%
    14:00 +24°C° 0 mm 6 mps 745 mmHg 49%
    15:00 +26°C° 0 mm 6 mps 745 mmHg 50%
    16:00 +26°C° 0.1 mm 5 mps 745 mmHg 54%
    17:00 +25°C° 0.1 mm 4 mps 745 mmHg 58%
    18:00 +25°C° 0.1 mm 3 mps 745 mmHg 63%
    19:00 +22°C° 0 mm 3 mps 745 mmHg 68%
    20:00 +21°C° 0 mm 2 mps 745 mmHg 73%
    21:00 +19°C° 0 mm 2 mps 745 mmHg 78%
    22:00 +19°C° 0 mm 2 mps 745 mmHg 81%
    23:00 +18°C° 0 mm 2 mps 745 mmHg 84%

    Day after tomorrow, 22 June, Friday

    Time Temperature Precipitation Wind Pressure Humidity
    00:00 +17°C° 0 mm 2 mps 745 mmHg 86%
    01:00 +17°C° 0 mm 2 mps 745 mmHg 88%
    02:00 +16°C° 0 mm 2 mps 745 mmHg 90%
    03:00 +16°C° 0 mm 2 mps 745 mmHg 92%
    04:00 +17°C° 0 mm 2 mps 745 mmHg 89%
    05:00 +17°C° 0 mm 3 mps 745 mmHg 87%
    06:00 +18°C° 0 mm 3 mps 745 mmHg 84%
    07:00 +20°C° 0 mm 4 mps 744 mmHg 78%
    08:00 +21°C° 0 mm 4 mps 744 mmHg 72%
    09:00 +23°C° 0 mm 5 mps 744 mmHg 66%
    10:00 +25°C° 0 mm 5 mps 744 mmHg 61%
    11:00 +27°C° 0 mm 6 mps 743 mmHg 56%
    12:00 +28°C° 0 mm 6 mps 743 mmHg 51%
    13:00 +28°C° 0.1 mm 6 mps 743 mmHg 53%
    14:00 +29°C° 0.1 mm 6 mps 742 mmHg 54%
    15:00 +29°C° 0.1 mm 6 mps 742 mmHg 56%
    16:00 +28°C° 0.6 mm 6 mps 742 mmHg 63%
    17:00 +27°C° 0.6 mm 5 mps 742 mmHg 71%
    18:00 +26°C° 0.6 mm 4 mps 742 mmHg 78%
    19:00 +25°C° 0.6 mm 4 mps 742 mmHg 82%
    20:00 +23°C° 0.6 mm 4 mps 742 mmHg 86%
    21:00 +21°C° 0.6 mm 3 mps 742 mmHg 90%
    22:00 +20°C° 0.1 mm 3 mps 742 mmHg 92%
    23:00 +19°C° 0.1 mm 2 mps 743 mmHg 93%

    23 June, Saturday

    Time Temperature Precipitation Wind Pressure Humidity
    00:00 +18°C° 0.1 mm 2 mps 743 mmHg 95%
    01:00 +18°C° 0 mm 2 mps 743 mmHg 94%
    02:00 +17°C° 0 mm 2 mps 743 mmHg 93%
    03:00 +16°C° 0 mm 2 mps 743 mmHg 93%
    04:00 +16°C° 0 mm 2 mps 743 mmHg 91%
    05:00 +16°C° 0 mm 2 mps 744 mmHg 90%
    06:00 +16°C° 0 mm 1 mps 744 mmHg 89%
    07:00 +16°C° 0 mm 2 mps 744 mmHg 88%
    08:00 +16°C° 0 mm 2 mps 744 mmHg 88%
    09:00 +16°C° 0 mm 2 mps 744 mmHg 88%
    10:00 +17°C° 0.1 mm 2 mps 744 mmHg 84%
    11:00 +17°C° 0.1 mm 3 mps 744 mmHg 81%
    12:00 +18°C° 0.1 mm 3 mps 744 mmHg 78%
    13:00 +18°C° 0.3 mm 3 mps 743 mmHg 78%
    14:00 +19°C° 0.3 mm 3 mps 743 mmHg 78%
    15:00 +19°C° 0.3 mm 3 mps 743 mmHg 78%
    16:00 +18°C° 1 mm 4 mps 743 mmHg 82%
    17:00 +17°C° 1 mm 4 mps 742 mmHg 86%
    18:00 +15°C° 1 mm 4 mps 742 mmHg 91%
    19:00 +14°C° 0.9 mm 4 mps 742 mmHg 92%
    20:00 +14°C° 0.9 mm 4 mps 742 mmHg 93%
    21:00 +13°C° 0.9 mm 3 mps 742 mmHg 95%
    22:00 +13°C° 1.2 mm 3 mps 742 mmHg 95%
    23:00 +12°C° 1.2 mm 3 mps 742 mmHg 96%

    24 June, Sunday

    Time Temperature Precipitation Wind Pressure Humidity
    00:00 +12°C° 1.2 mm 3 mps 742 mmHg 96%
    01:00 +11°C° 1.4 mm 3 mps 742 mmHg 95%
    02:00 +11°C° 1.4 mm 4 mps 742 mmHg 95%
    03:00 +11°C° 1.4 mm 4 mps 742 mmHg 95%
    04:00 +11°C° 0.4 mm 4 mps 742 mmHg 94%
    05:00 +10°C° 0.4 mm 4 mps 742 mmHg 94%
    06:00 +10°C° 0.4 mm 4 mps 743 mmHg 93%
    07:00 +12°C° 0 mm 4 mps 743 mmHg 87%
    08:00 +13°C° 0 mm 4 mps 744 mmHg 82%
    09:00 +15°C° 0 mm 4 mps 745 mmHg 76%
    10:00 +18°C° 0 mm 4 mps 745 mmHg 68%
    11:00 +19°C° 0 mm 4 mps 745 mmHg 59%
    12:00 +21°C° 0 mm 4 mps 746 mmHg 51%
    13:00 +22°C° 0 mm 4 mps 746 mmHg 49%
    14:00 +22°C° 0 mm 4 mps 746 mmHg 47%
    15:00 +23°C° 0 mm 4 mps 746 mmHg 44%
    16:00 +24°C° 0 mm 3 mps 747 mmHg 47%
    17:00 +22°C° 0 mm 3 mps 747 mmHg 50%
    18:00 +22°C° 0 mm 3 mps 747 mmHg 53%
    19:00 +20°C° 0 mm 2 mps 747 mmHg 60%
    20:00 +19°C° 0 mm 2 mps 748 mmHg 67%
    21:00 +17°C° 0 mm 2 mps 748 mmHg 73%
    22:00 +16°C° 0 mm 2 mps 748 mmHg 77%
    23:00 +15°C° 0 mm 2 mps 748 mmHg 81%

    25 June, Monday

    Time Temperature Precipitation Wind Pressure Humidity
    00:00 +14°C° 0 mm 2 mps 748 mmHg 84%
    01:00 +14°C° 0 mm 2 mps 748 mmHg 86%
    02:00 +13°C° 0 mm 2 mps 749 mmHg 88%
    03:00 +13°C° 0 mm 2 mps 749 mmHg 91%
    04:00 +13°C° 0 mm 2 mps 749 mmHg 89%
    05:00 +14°C° 0 mm 2 mps 749 mmHg 87%
    06:00 +14°C° 0 mm 2 mps 749 mmHg 85%
    07:00 +16°C° 0 mm 2 mps 749 mmHg 78%
    08:00 +17°C° 0 mm 3 mps 749 mmHg 71%
    09:00 +19°C° 0 mm 3 mps 749 mmHg 65%
    10:00 +20°C° 0 mm 3 mps 749 mmHg 59%
    11:00 +21°C° 0 mm 3 mps 749 mmHg 54%
    12:00 +22°C° 0 mm 4 mps 749 mmHg 49%
    13:00 +23°C° 0 mm 4 mps 749 mmHg 47%
    14:00 +23°C° 0 mm 4 mps 749 mmHg 46%
    15:00 +23°C° 0 mm 4 mps 749 mmHg 45%
    16:00 +24°C° 0 mm 3 mps 749 mmHg 48%
    17:00 +22°C° 0 mm 3 mps 749 mmHg 52%
    18:00 +22°C° 0 mm 3 mps 749 mmHg 55%
    19:00 +20°C° 0 mm 3 mps 749 mmHg 62%
    20:00 +19°C° 0 mm 2 mps 749 mmHg 69%
    21:00 +17°C° 0 mm 2 mps 749 mmHg 76%
    22:00 +16°C° 0 mm 2 mps 750 mmHg 80%
    23:00 +15°C° 0 mm 2 mps 750 mmHg 83%
    Show more